Orbital Elements at Epoch 2459000.5 (2020-May-31.0) TDB
Reference: JPL 17 (heliocentric ecliptic J2000)
Element | Value | Uncertainty (1-sigma) | Units |
e | .07336046099929261 | 6.1101e-08 | |
a | 1.922726177059686 | 9.1767e-09 | au |
q | 1.78167409833518 | 1.1857e-07 | au |
i | 23.3466114814121 | 7.5036e-06 | deg |
node | 103.6960652983466 | 1.2473e-05 | deg |
peri | 11.28913259312431 | 3.8879e-05 | deg |
M | 179.2263979179197 | 3.775e-05 | deg |
tp | 2458515.687218272705 (2019-Feb-01.18721827) | 0.00010105 | TDB |
period | 973.8107971224017 2.67 | 6.9716e-06 1.909e-08 | d yr |
n | .3696816682088506 | 2.6466e-09 | deg/d |
Q | 2.063778255784192 | 9.8499e-09 | au |
|
| | Orbit Determination Parameters
Additional Information
|